Matsuyama current weather conditions

sailwx.info

Wind from 350 at 17 knots

Air temperature 9.0° C
Visibility: greater than 5.4 NM
Dewpoint -3.0° C

Last reported at 2015-Mar-05 04:00 UTC.
Time now 2015-Mar-05 06:40 UTC

Location: N 33°50' E 132°42'.
View on Google Maps.

See reports from other nearby stations

  
Tides and Currents Weather Stations Pressure Air Temp Water Temp Dewpoint Dewpoint Depression Visibility Wind Speed Wind Dir Waves Ship Positions
date/time (UTC)wind fromknots sea level pressurealtimeterstation pressurevisibilityair tempwater tempwave heightnotes
2015-Mar-05 04:00 350 17 5.4 9.0
2015-Mar-05 03:00 360 17 5.4 9.0
2015-Mar-05 02:00 020 14 5.4 8.0
2015-Mar-05 01:00 010 13 5.4 8.0
2015-Mar-05 00:00 020 11 5.4 7.0
2015-Mar-04 23:00 120 5 5.4 4.0
2015-Mar-04 22:00 090 3 5.4 2.0
2015-Mar-04 21:10 120 7 5.4 2.0
2015-Mar-04 12:00 320 13 5.4 7.0
2015-Mar-04 11:00 300 17 5.4 7.0
2015-Mar-04 10:00 280 18 5.4 8.0
2015-Mar-04 09:00 270 22 5.4 8.0
2015-Mar-04 08:00 260 19 5.4 9.0
2015-Mar-04 07:00 250 20 5.4 9.0
2015-Mar-04 06:00 250 19 5.4 9.0
2015-Mar-04 05:00 250 19 5.410.0
2015-Mar-04 04:00 240 18 5.4 9.0
2015-Mar-04 03:00 260 24 5.410.0
2015-Mar-04 02:00 280 18 5.4 9.0
2015-Mar-04 01:00 270 25 4.310.0
2015-Mar-04 00:00 280 24 5.410.0
2015-Mar-03 23:00 250 16 5.410.0
2015-Mar-03 22:00 230 19 5.4 9.0
2015-Mar-03 21:10 230 14 5.4 9.0
2015-Mar-03 12:15 330 5 2.4 7.0 Light rain. Mist.
2015-Mar-03 12:00 2.4 7.0 Rain. Mist.
2015-Mar-03 11:00 140 5 2.4 7.0 Rain. Mist.
2015-Mar-03 10:00 020 6 2.4 8.0 Rain. Mist.
2015-Mar-03 09:00 2.4 7.0 Rain. Mist.
2015-Mar-03 08:00 050 5 2.4 7.0 Rain. Mist.
2015-Mar-03 07:00 340 7 2.2 7.0 Rain. Mist.
2015-Mar-03 06:00 030 9 2.4 7.0 Rain. Mist.